Cloud_Cover
15 41 28 61 58 70 100 100 100 100 100 100 100 100 100 100 93 15 1 0 0 0 0 7 18 29 9 6 13 77 93 100 100
63 11 11 0 0 53 5 78 100 80 100 100 100 100 100 100 100 86 5 0 3 0 15 65 14 3 5 98 100 100 100 100 100
7 5 2 0 0 0 4 11 91 100 100 100 100 100 100 100 100 100 100 89 16 1 4 24 14 5 5 74 71 100 100 100 100
0 0 0 0 0 0 0 80 100 100 98 100 100 100 100 100 100 100 100 100 100 94 9 48 10 0 5 3 32 100 100 100 100
0 0 0 0 0 0 1 100 100 77 7 43 100 100 100 100 100 96 92 82 100 100 77 48 22 39 5 69 5 100 100 100 100
0 0 0 0 0 0 0 93 100 98 61 99 100 100 100 100 100 100 100 59 13 91 37 16 19 12 1 5 28 100 100 100 100
0 0 0 0 0 0 0 1 50 99 26 92 100 100 100 86 99 100 95 37 99 100 2 3 19 21 11 0 12 85 100 100 100
0 0 0 0 0 0 0 0 0 8 98 84 5 40 75 92 100 45 50 74 98 100 0 0 0 1 0 0 0 8 3 98 100
0 0 0 0 0 0 0 0 0 0 46 100 80 10 20 85 81 100 98 39 6 0 0 1 0 0 0 0 0 0 5 41 23
0 0 0 0 0 0 0 0 0 0 0 0 0 1 4 53 43 4 0 26 1 0 0 0 0 5 2 0 0 0 0 5 56
0 0 0 0 0 0 0 0 0 0 0 0 0 1 10 1 3 7 5 0 2 5 3 1 10 4 5 14 4 0 0 2 5
0 0 0 0 0 0 0 0 0 0 0 0 0 0 0 0 0 3 11 8 9 30 53 85 47 16 0 0 0 0 0 0 0
0 0 0 0 0 0 0 0 0 1 0 0 0 0 0 0 0 0 0 0 0 1 0 5 99 100 92 3 0 0 0 0 0
0 0 0 0 0 0 0 0 0 0 0 0 0 0 0 0 0 0 0 0 0 0 0 0 3 15 60 98 6 1 0 0 0
0 0 0 0 0 0 0 0 0 0 0 0 0 0 0 0 0 0 0 0 0 0 0 0 0 0 1 20 70 6 0 0 0
0 0 0 0 0 0 0 0 0 0 0 0 0 0 0 0 0 0 0 0 0 0 0 0 1 5 1 0 0 18 90 87 61
8 47 85 79 3 0 0 0 0 0 0 0 0 0 0 0 0 0 0 0 0 0 0 5 18 8 8 1 0 0 0 27 30
100 100 100 31 12 1 0 0 3 0 0 0 0 0 0 0 0 0 0 0 0 0 0 0 0 3 0 0 0 0 0 6 2
100 100 74 68 90 96 5 2 0 5 0 0 0 0 0 0 0 0 0 0 0 0 0 0 0 0 0 0 0 0 0 0 0
100 100 100 100 100 100 51 10 0 0 0 0 0 0 0 0 0 1 0 0 0 0 0 0 0 0 0 0 0 0 0 0 0